Location: Marcé
(47.5801°N, 0.3280°W)
Time: 07:33:21
(UTC+01:00)

Vanguard 1 - Pass Details

Date: 02 December 2021
Orbit: 652 x 3830 km, 34.2° (Epoch: 16 January)

Event Time Altitude Azimuth Distance (km) Brightness Sun altitude
Exits shadow 03:36:55 54° 169° (S) 3,857 12.7 -48.1°
Drops below altitude 10° 03:51:41 10° 108° (ESE) 5,147 14.1 -45.8°
Sets 03:55:00 0° 103° (ESE) 5,802 14.6 -45.2°
